| time (UTC) | temp F | wind direction | speed MPH | gust MPH | rain 1hr in | rain 24hr in | rain mn in | humidity % | barometer mb |
| 20260903074413 | 64 | 114 | 2.0 | 9.0 | 0.00 | 0.00 | 0.00 | 59 | 974.6 |
| 20260903073958 | 64 | 99 | 4.0 | 5.0 | 0.00 | 0.00 | 0.00 | 59 | 974.8 |
| 20260903073548 | 65 | 99 | 2.0 | 9.0 | 0.00 | 0.00 | 0.00 | 59 | 974.7 |
| 20260903073115 | 65 | 119 | 2.0 | 7.0 | 0.00 | 0.00 | 0.00 | 59 | 975.0 |
| 20260903072658 | 65 | 119 | 2.0 | 3.0 | 0.00 | 0.00 | 0.00 | 59 | 974.8 |
| 20260903072228 | 65 | 119 | 1.0 | 3.0 | 0.00 | 0.00 | 0.00 | 64 | 975.2 |
| 20260903071745 | 65 | 106 | 1.0 | 5.0 | 0.00 | 0.00 | 0.00 | 64 | 975.0 |
| 20260903071328 | 63 | 113 | 1.0 | 5.0 | 0.00 | 0.00 | 0.00 | 64 | 975.1 |
| 20260903070835 | 63 | 113 | 2.0 | 5.0 | 0.00 | 0.00 | 0.00 | 64 | 975.2 |
| 20260903070358 | 63 | 97 | 2.0 | 1.0 | 0.00 | 0.00 | 0.00 | 64 | 975.1 |
| 20260903065908 | 63 | 97 | 1.0 | 0.0 | 0.00 | 0.00 | 0.00 | 64 | 975.0 |
| 20260903065438 | 63 | 19 | 1.0 | 0.0 | 0.00 | 0.00 | 0.00 | 64 | 975.2 |
| 20260903065033 | 65 | 19 | 0.0 | 0.0 | 0.00 | 0.00 | 0.00 | 64 | 975.3 |
| 20260903064613 | 65 | 19 | 1.0 | 0.0 | 0.00 | 0.00 | 0.00 | 63 | 975.0 |
| 20260903064128 | 65 | 19 | 1.0 | 0.0 | 0.00 | 0.00 | 0.00 | 63 | 975.3 |
| 20260903063703 | 61 | 19 | 1.0 | 0.0 | 0.00 | 0.00 | 0.00 | 66 | 975.2 |
| 20260903063225 | 61 | 19 | 1.0 | 0.0 | 0.00 | 0.00 | 0.00 | 66 | 975.2 |
| 20260903062758 | 61 | 19 | 0.0 | 0.0 | 0.00 | 0.00 | 0.00 | 77 | 975.2 |
| 20260903062343 | 60 | 19 | 0.0 | 0.0 | 0.00 | 0.00 | 0.00 | 77 | 975.0 |
| 20260903061903 | 60 | 324 | 1.0 | 0.0 | 0.00 | 0.00 | 0.00 | 77 | 975.4 |
| 20260903061415 | 55 | 324 | 0.0 | 0.0 | 0.00 | 0.00 | 0.00 | 77 | 975.5 |
| 20260903060923 | 55 | 324 | 0.0 | 0.0 | 0.00 | 0.00 | 0.00 | 77 | 975.4 |
| 20260903060455 | 55 | 324 | 0.0 | 1.0 | 0.00 | 0.00 | 0.00 | 77 | 975.3 |
| 20260903060048 | 55 | 324 | 0.0 | 0.0 | 0.00 | 0.00 | 0.00 | 77 | 975.4 |
| 20260903055603 | 55 | 322 | 0.0 | 0.0 | 0.00 | 0.00 | 0.00 | 88 | 975.4 |
| 20260903055133 | 55 | 322 | 0.0 | 0.0 | 0.00 | 0.00 | 0.00 | 88 | 975.5 |
| 20260903054708 | 55 | 322 | 0.0 | 0.0 | 0.00 | 0.00 | 0.00 | 88 | 975.2 |
| 20260903054255 | 53 | 322 | 0.0 | 0.0 | 0.00 | 0.00 | 0.00 | 88 | 975.3 |
| 20260903053843 | 53 | 322 | 0.0 | 0.0 | 0.00 | 0.00 | 0.00 | 88 | 975.1 |
| 20260903053418 | 53 | 322 | 0.0 | 0.0 | 0.00 | 0.00 | 0.00 | 88 | 975.1 |
| 20260903053013 | 52 | 322 | 0.0 | 0.0 | 0.00 | 0.00 | 0.00 | 88 | 974.8 |
| 20260903052548 | 52 | 322 | 0.0 | 0.0 | 0.00 | 0.00 | 0.00 | 88 | 974.7 |
| 20260903052113 | 52 | 322 | 0.0 | 0.0 | 0.00 | 0.00 | 0.00 | 88 | 974.8 |
| 20260903051653 | 53 | 322 | 0.0 | 0.0 | 0.00 | 0.00 | 0.00 | 88 | 974.8 |
| 20260903051203 | 53 | 322 | 0.0 | 0.0 | 0.00 | 0.00 | 0.00 | 88 | 974.6 |
| 20260903050743 | 53 | 322 | 0.0 | 0.0 | 0.00 | 0.00 | 0.00 | 87 | 974.7 |
| 20260903050333 | 53 | 322 | 0.0 | 0.0 | 0.00 | 0.00 | 0.00 | 87 | 974.8 |
| 20260903045913 | 53 | 322 | 1.0 | 0.0 | 0.00 | 0.00 | 0.00 | 87 | 974.8 |
| 20260903045458 | 53 | 322 | 0.0 | 0.0 | 0.00 | 0.00 | 0.00 | 87 | 974.6 |
| 20260903045043 | 53 | 322 | 0.0 | 0.0 | 0.00 | 0.00 | 0.00 | 87 | 974.8 |
| 20260903044618 | 53 | 322 | 0.0 | 0.0 | 0.00 | 0.00 | 0.00 | 86 | 975.1 |
| 20260903044118 | 54 | 322 | 0.0 | 0.0 | 0.00 | 0.00 | 0.00 | 86 | 974.7 |
| 20260903043638 | 53 | 322 | 0.0 | 0.0 | 0.00 | 0.00 | 0.00 | 86 | 974.6 |
| 20260903043203 | 53 | 322 | 0.0 | 1.0 | 0.00 | 0.00 | 0.00 | 88 | 974.5 |
| 20260903042728 | 53 | 322 | 2.0 | 1.0 | 0.00 | 0.00 | 0.00 | 88 | 974.8 |
| 20260903042238 | 53 | 322 | 0.0 | 1.0 | 0.00 | 0.00 | 0.00 | 88 | 974.7 |
| 20260903041823 | 53 | 322 | 0.0 | 1.0 | 0.00 | 0.00 | 0.00 | 88 | 974.7 |
| 20260903041333 | 53 | 322 | 0.0 | 1.0 | 0.00 | 0.00 | 0.00 | 88 | 974.8 |
| 20260903040908 | 53 | 322 | 0.0 | 1.0 | 0.00 | 0.00 | 0.00 | 88 | 975.0 |
| 20260903040448 | 54 | 322 | 0.0 | 1.0 | 0.00 | 0.00 | 0.00 | 88 | 974.5 |
| 20260903040038 | 53 | 322 | 0.0 | 1.0 | 0.00 | 0.00 | 0.00 | 88 | 974.6 |
| 20260903035623 | 53 | 327 | 1.0 | 1.0 | 0.00 | 0.00 | 0.00 | 88 | 974.9 |
| 20260903035148 | 53 | 327 | 0.0 | 1.0 | 0.00 | 0.00 | 0.00 | 88 | 974.8 |
| 20260903034708 | 54 | 327 | 1.0 | 1.0 | 0.00 | 0.00 | 0.00 | 88 | 974.7 |
| 20260903034253 | 54 | 327 | 1.0 | 1.0 | 0.00 | 0.00 | 0.00 | 88 | 974.9 |
| 20260903033833 | 54 | 327 | 1.0 | 0.0 | 0.00 | 0.00 | 0.00 | 88 | 974.9 |
| 20260903033358 | 54 | 327 | 1.0 | 0.0 | 0.00 | 0.00 | 0.00 | 88 | 974.6 |
| 20260903032918 | 54 | 327 | 0.0 | 0.0 | 0.00 | 0.00 | 0.00 | 75 | 974.8 |
| 20260903032435 | 54 | 327 | 0.0 | 0.0 | 0.00 | 0.00 | 0.00 | 75 | 974.8 |
| 20260903032018 | 54 | 327 | 0.0 | 0.0 | 0.00 | 0.00 | 0.00 | 75 | 974.8 |
| 20260903031555 | 54 | 327 | 0.0 | 0.0 | 0.00 | 0.00 | 0.00 | 75 | 974.8 |
| 20260903031118 | 54 | 327 | 0.0 | 0.0 | 0.00 | 0.00 | 0.00 | 75 | 974.7 |
| 20260903030643 | 54 | 327 | 0.0 | 0.0 | 0.00 | 0.00 | 0.00 | 75 | 974.8 |
| 20260903030203 | 54 | 327 | 0.0 | 0.0 | 0.00 | 0.00 | 0.00 | 75 | 974.8 |
| 20260903025733 | 53 | 327 | 0.0 | 0.0 | 0.00 | 0.00 | 0.00 | 75 | 974.8 |
| 20260903025308 | 53 | 327 | 0.0 | 0.0 | 0.00 | 0.00 | 0.00 | 75 | 974.8 |
| 20260903024833 | 53 | 327 | 0.0 | 0.0 | 0.00 | 0.00 | 0.00 | 75 | 974.9 |
| 20260903024428 | 53 | 327 | 0.0 | 0.0 | 0.00 | 0.00 | 0.00 | 75 | 974.7 |
| 20260903023955 | 53 | 327 | 0.0 | 0.0 | 0.00 | 0.00 | 0.00 | 75 | 974.8 |
| 20260903023535 | 53 | 327 | 1.0 | 0.0 | 0.00 | 0.00 | 0.00 | 75 | 974.7 |
| 20260903023058 | 53 | 327 | 0.0 | 0.0 | 0.00 | 0.00 | 0.00 | 75 | 974.7 |
| 20260903022621 | 53 | 327 | 0.0 | 0.0 | 0.00 | 0.00 | 0.00 | 75 | 974.9 |
| 20260903022143 | 53 | 327 | 1.0 | 0.0 | 0.00 | 0.00 | 0.00 | 75 | 974.8 |
| 20260903021653 | 54 | 327 | 0.0 | 0.0 | 0.00 | 0.00 | 0.00 | 75 | 974.5 |
| 20260903021233 | 55 | 327 | 0.0 | 0.0 | 0.00 | 0.00 | 0.00 | 75 | 974.6 |
| 20260903020743 | 55 | 327 | 0.0 | 0.0 | 0.00 | 0.00 | 0.00 | 75 | 974.8 |
| 20260903020253 | 55 | 327 | 0.0 | 1.0 | 0.00 | 0.00 | 0.00 | 75 | 974.7 |
| 20260903015843 | 55 | 327 | 1.0 | 0.0 | 0.00 | 0.00 | 0.00 | 75 | 974.7 |
| 20260903015423 | 55 | 327 | 1.0 | 0.0 | 0.00 | 0.00 | 0.00 | 75 | 974.7 |
| 20260903015003 | 55 | 327 | 0.0 | 0.0 | 0.00 | 0.00 | 0.00 | 75 | 974.7 |
| 20260903014535 | 55 | 327 | 0.0 | 0.0 | 0.00 | 0.00 | 0.00 | 75 | 974.7 |
| 20260903014113 | 57 | 327 | 0.0 | 0.0 | 0.00 | 0.00 | 0.00 | 75 | 974.6 |
| 20260903013708 | 57 | 327 | 0.0 | 0.0 | 0.00 | 0.00 | 0.00 | 75 | 974.7 |
| 20260903013238 | 56 | 327 | 0.0 | 0.0 | 0.00 | 0.00 | 0.00 | 75 | 974.7 |
| 20260903012803 | 57 | 327 | 0.0 | 0.0 | 0.00 | 0.00 | 0.00 | 75 | 974.9 |
| 20260903012333 | 57 | 327 | 0.0 | 1.0 | 0.00 | 0.00 | 0.00 | 75 | 974.6 |
| 20260903011848 | 57 | 327 | 0.0 | 1.0 | 0.00 | 0.00 | 0.00 | 75 | 974.7 |
| 20260903011413 | 57 | 327 | 0.0 | 1.0 | 0.00 | 0.00 | 0.00 | 75 | 974.7 |
| 20260903010948 | 57 | 327 | 0.0 | 1.0 | 0.00 | 0.00 | 0.00 | 75 | 974.6 |
| 20260903010513 | 57 | 327 | 1.0 | 1.0 | 0.00 | 0.00 | 0.00 | 75 | 974.8 |
| 20260903010033 | 57 | 327 | 1.0 | 1.0 | 0.00 | 0.00 | 0.00 | 75 | 974.6 |
| 20260903005603 | 57 | 302 | 0.0 | 1.0 | 0.00 | 0.00 | 0.00 | 75 | 974.7 |
| 20260903005133 | 57 | 302 | 0.0 | 0.0 | 0.00 | 0.00 | 0.00 | 75 | 974.6 |
| 20260903004643 | 57 | 302 | 0.0 | 1.0 | 0.00 | 0.00 | 0.00 | 75 | 974.7 |
| 20260903004158 | 58 | 302 | 0.0 | 1.0 | 0.00 | 0.00 | 0.00 | 75 | 974.6 |
| 20260903003742 | 58 | 302 | 0.0 | 1.0 | 0.00 | 0.00 | 0.00 | 75 | 974.6 |
| 20260903003308 | 59 | 302 | 0.0 | 1.0 | 0.00 | 0.00 | 0.00 | 75 | 974.6 |
| 20260903002833 | 59 | 302 | 0.0 | 1.0 | 0.00 | 0.00 | 0.00 | 75 | 974.6 |
| 20260903002413 | 59 | 302 | 0.0 | 0.0 | 0.00 | 0.00 | 0.00 | 75 | 974.8 |
| 20260903001955 | 59 | 302 | 0.0 | 0.0 | 0.00 | 0.00 | 0.00 | 75 | 974.5 |
| 20260903001538 | 59 | 302 | 1.0 | 1.0 | 0.00 | 0.00 | 0.00 | 75 | 974.8 |
| 20260903001135 | 59 | 302 | 0.0 | 0.0 | 0.00 | 0.00 | 0.00 | 75 | 974.5 |
| 20260903000713 | 59 | 302 | 0.0 | 0.0 | 0.00 | 0.00 | 0.00 | 75 | 974.7 |
| 20260903000233 | 59 | 302 | 0.0 | 0.0 | 0.00 | 0.00 | 0.00 | 76 | 974.6 |
| 20260902235808 | 59 | 302 | 0.0 | 0.0 | 0.00 | 0.00 | 0.00 | 76 | 974.7 |
| 20260902235328 | 59 | 302 | 0.0 | 1.0 | 0.00 | 0.00 | 0.00 | 76 | 974.8 |
| 20260902234858 | 59 | 302 | 0.0 | 0.0 | 0.00 | 0.00 | 0.00 | 76 | 974.7 |
| 20260902234444 | 59 | 302 | 0.0 | 0.0 | 0.00 | 0.00 | 0.00 | 76 | 974.5 |
| 20260902233953 | 59 | 302 | 0.0 | 0.0 | 0.00 | 0.00 | 0.00 | 76 | 974.7 |
| 20260902233533 | 59 | 302 | 0.0 | 0.0 | 0.00 | 0.00 | 0.00 | 76 | 974.7 |
| 20260902233053 | 60 | 302 | 0.0 | 0.0 | 0.00 | 0.00 | 0.00 | 76 | 974.5 |
| 20260902232638 | 60 | 302 | 0.0 | 0.0 | 0.00 | 0.00 | 0.00 | 76 | 974.5 |
| 20260902232153 | 60 | 302 | 0.0 | 0.0 | 0.00 | 0.00 | 0.00 | 76 | 974.6 |
| 20260902231723 | 60 | 302 | 0.0 | 0.0 | 0.00 | 0.00 | 0.00 | 76 | 974.7 |
| 20260902231235 | 60 | 302 | 0.0 | 0.0 | 0.00 | 0.00 | 0.00 | 75 | 974.7 |
| 20260902230808 | 60 | 302 | 0.0 | 0.0 | 0.00 | 0.00 | 0.00 | 75 | 974.6 |
| 20260902230318 | 60 | 302 | 0.0 | 0.0 | 0.00 | 0.00 | 0.00 | 75 | 974.7 |
| 20260902225835 | 60 | 302 | 0.0 | 0.0 | 0.00 | 0.00 | 0.00 | 75 | 974.6 |
| 20260902225408 | 60 | 302 | 0.0 | 0.0 | 0.00 | 0.00 | 0.00 | 75 | 974.7 |
| 20260902224923 | 60 | 302 | 0.0 | 0.0 | 0.00 | 0.00 | 0.00 | 75 | 974.7 |
| 20260902224513 | 60 | 302 | 0.0 | 0.0 | 0.00 | 0.00 | 0.00 | 74 | 974.6 |
| 20260902224055 | 60 | 302 | 1.0 | 0.0 | 0.00 | 0.00 | 0.00 | 74 | 974.6 |
| 20260902223603 | 60 | 302 | 1.0 | 0.0 | 0.00 | 0.00 | 0.00 | 74 | 974.5 |
| 20260902223123 | 60 | 302 | 0.0 | 0.0 | 0.00 | 0.00 | 0.00 | 74 | 974.5 |
| 20260902222647 | 60 | 302 | 1.0 | 0.0 | 0.00 | 0.00 | 0.00 | 74 | 974.7 |
| 20260902222226 | 60 | 314 | 0.0 | 0.0 | 0.00 | 0.00 | 0.00 | 74 | 974.7 |
| 20260902221806 | 60 | 314 | 0.0 | 0.0 | 0.00 | 0.00 | 0.00 | 74 | 974.5 |
| 20260902221328 | 60 | 314 | 0.0 | 1.0 | 0.00 | 0.00 | 0.00 | 74 | 974.8 |
| 20260902220838 | 60 | 308 | 0.0 | 0.0 | 0.00 | 0.00 | 0.00 | 74 | 974.6 |
| 20260902220418 | 60 | 308 | 0.0 | 0.0 | 0.00 | 0.00 | 0.00 | 74 | 974.5 |
| 20260902220003 | 60 | 303 | 0.0 | 3.0 | 0.00 | 0.00 | 0.00 | 74 | 974.4 |
| 20260902215503 | 60 | 313 | 0.0 | 1.0 | 0.00 | 0.00 | 0.00 | 74 | 974.6 |
| 20260902215038 | 60 | 313 | 0.0 | 3.0 | 0.00 | 0.00 | 0.00 | 74 | 974.5 |
| 20260902214548 | 60 | 313 | 1.0 | 3.0 | 0.00 | 0.00 | 0.00 | 74 | 974.6 |
| 20260902214108 | 60 | 306 | 2.0 | 3.0 | 0.00 | 0.00 | 0.00 | 74 | 974.6 |
| 20260902213615 | 60 | 317 | 1.0 | 3.0 | 0.00 | 0.00 | 0.00 | 74 | 974.6 |
| 20260902213143 | 60 | 317 | 2.0 | 0.0 | 0.00 | 0.00 | 0.00 | 74 | 974.7 |
| 20260902212733 | 60 | 317 | 0.0 | 0.0 | 0.00 | 0.00 | 0.00 | 74 | 974.5 |
| 20260902212313 | 60 | 317 | 1.0 | 1.0 | 0.00 | 0.00 | 0.00 | 74 | 974.6 |
| 20260902211843 | 60 | 317 | 1.0 | 0.0 | 0.00 | 0.00 | 0.00 | 74 | 974.6 |
| 20260902211413 | 60 | 317 | 1.0 | 0.0 | 0.00 | 0.00 | 0.00 | 68 | 974.5 |
| 20260902210948 | 60 | 317 | 1.0 | 0.0 | 0.00 | 0.00 | 0.00 | 68 | 974.6 |
| 20260902210528 | 60 | 317 | 1.0 | 3.0 | 0.00 | 0.00 | 0.00 | 68 | 974.6 |
| 20260902210058 | 60 | 317 | 2.0 | 3.0 | 0.00 | 0.00 | 0.00 | 68 | 974.5 |
| 20260902205633 | 60 | 317 | 1.0 | 3.0 | 0.00 | 0.00 | 0.00 | 68 | 974.2 |
| 20260902205213 | 60 | 317 | 1.0 | 3.0 | 0.00 | 0.00 | 0.00 | 68 | 974.2 |
| 20260902204803 | 60 | 287 | 1.0 | 3.0 | 0.00 | 0.00 | 0.00 | 68 | 974.3 |
| 20260902204328 | 60 | 287 | 2.0 | 1.0 | 0.00 | 0.00 | 0.00 | 68 | 974.4 |
| 20260902203918 | 60 | 287 | 2.0 | 0.0 | 0.00 | 0.00 | 0.00 | 68 | 974.4 |
| 20260902203448 | 60 | 287 | 0.0 | 0.0 | 0.00 | 0.00 | 0.00 | 68 | 974.5 |
| 20260902203013 | 60 | 287 | 0.0 | 0.0 | 0.00 | 0.00 | 0.00 | 68 | 974.2 |
| 20260902202543 | 62 | 287 | 0.0 | 1.0 | 0.00 | 0.00 | 0.00 | 68 | 974.3 |
| 20260902202103 | 62 | 287 | 2.0 | 3.0 | 0.00 | 0.00 | 0.00 | 68 | 974.2 |
| 20260902201645 | 62 | 287 | 0.0 | 3.0 | 0.00 | 0.00 | 0.00 | 68 | 974.3 |
| 20260902201228 | 62 | 329 | 2.0 | 1.0 | 0.00 | 0.00 | 0.00 | 68 | 974.3 |
| 20260902200753 | 62 | 329 | 1.0 | 0.0 | 0.00 | 0.00 | 0.00 | 68 | 974.2 |
| 20260902200258 | 62 | 329 | 1.0 | 0.0 | 0.00 | 0.00 | 0.00 | 68 | 974.5 |
| 20260902195828 | 63 | 329 | 1.0 | 1.0 | 0.00 | 0.00 | 0.00 | 63 | 974.2 |
| 20260902195408 | 63 | 329 | 0.0 | 1.0 | 0.00 | 0.00 | 0.00 | 63 | 974.1 |
| 20260902194928 | 68 | 329 | 0.0 | 1.0 | 0.00 | 0.00 | 0.00 | 63 | 974.2 |
| 20260902194513 | 68 | 329 | 2.0 | 1.0 | 0.00 | 0.00 | 0.00 | 63 | 974.3 |
| 20260902194058 | 68 | 329 | 2.0 | 1.0 | 0.00 | 0.00 | 0.00 | 63 | 974.1 |
| 20260902193623 | 68 | 324 | 2.0 | 1.0 | 0.00 | 0.00 | 0.00 | 63 | 974.3 |
| 20260902193158 | 68 | 324 | 1.0 | 1.0 | 0.00 | 0.00 | 0.00 | 63 | 974.3 |
| 20260902192708 | 68 | 324 | 1.0 | 3.0 | 0.00 | 0.00 | 0.00 | 63 | 974.3 |
| 20260902192253 | 68 | 324 | 1.0 | 1.0 | 0.00 | 0.00 | 0.00 | 63 | 974.3 |
| 20260902191808 | 68 | 324 | 2.0 | 1.0 | 0.00 | 0.00 | 0.00 | 63 | 974.3 |
| 20260902191353 | 68 | 324 | 2.0 | 1.0 | 0.00 | 0.00 | 0.00 | 63 | 974.2 |
| 20260902190913 | 68 | 324 | 1.0 | 1.0 | 0.00 | 0.00 | 0.00 | 61 | 974.2 |
| 20260902190453 | 68 | 324 | 1.0 | 1.0 | 0.00 | 0.00 | 0.00 | 61 | 974.1 |
| 20260902190033 | 68 | 324 | 2.0 | 3.0 | 0.00 | 0.00 | 0.00 | 61 | 974.1 |
| 20260902185555 | 68 | 324 | 2.0 | 3.0 | 0.00 | 0.00 | 0.00 | 57 | 973.9 |
| 20260902185138 | 68 | 331 | 2.0 | 3.0 | 0.00 | 0.00 | 0.00 | 57 | 973.9 |
| 20260902184655 | 68 | 331 | 3.0 | 5.0 | 0.00 | 0.00 | 0.00 | 57 | 974.0 |
| 20260902184218 | 68 | 331 | 3.0 | 3.0 | 0.00 | 0.00 | 0.00 | 57 | 974.1 |
| 20260902183803 | 68 | 304 | 3.0 | 7.0 | 0.00 | 0.00 | 0.00 | 57 | 973.9 |
| 20260902183355 | 68 | 346 | 3.0 | 5.0 | 0.00 | 0.00 | 0.00 | 57 | 973.7 |
| 20260902182913 | 68 | 346 | 4.0 | 9.0 | 0.00 | 0.00 | 0.00 | 57 | 973.6 |
| 20260902182453 | 68 | 346 | 2.0 | 5.0 | 0.00 | 0.00 | 0.00 | 57 | 973.7 |
| 20260902182018 | 68 | 346 | 2.0 | 3.0 | 0.00 | 0.00 | 0.00 | 57 | 973.5 |
| 20260902181543 | 68 | 346 | 2.0 | 3.0 | 0.00 | 0.00 | 0.00 | 57 | 973.6 |
| 20260902181123 | 68 | 346 | 2.0 | 3.0 | 0.00 | 0.00 | 0.00 | 57 | 973.5 |
| 20260902180643 | 68 | 346 | 2.0 | 5.0 | 0.00 | 0.00 | 0.00 | 57 | 973.5 |
| 20260902180215 | 68 | 296 | 2.0 | 5.0 | 0.00 | 0.00 | 0.00 | 57 | 973.4 |
| 20260902175743 | 69 | 296 | 2.0 | 3.0 | 0.00 | 0.00 | 0.00 | 57 | 973.4 |
| 20260902175308 | 69 | 356 | 3.0 | 5.0 | 0.00 | 0.00 | 0.00 | 55 | 973.4 |
| 20260902174843 | 69 | 356 | 5.0 | 7.0 | 0.00 | 0.00 | 0.00 | 55 | 973.4 |
| 20260902174353 | 69 | 356 | 4.0 | 7.0 | 0.00 | 0.00 | 0.00 | 55 | 973.4 |
| 20260902173913 | 71 | 356 | 6.0 | 7.0 | 0.00 | 0.00 | 0.00 | 55 | 973.4 |
| 20260902173453 | 71 | 356 | 9.0 | 7.0 | 0.00 | 0.00 | 0.00 | 55 | 973.3 |
| 20260902172958 | 71 | 337 | 9.0 | 9.0 | 0.00 | 0.00 | 0.00 | 55 | 973.2 |
| 20260902172538 | 71 | 337 | 5.0 | 14.0 | 0.00 | 0.00 | 0.00 | 55 | 973.4 |
| 20260902172115 | 71 | 346 | 4.0 | 9.0 | 0.00 | 0.00 | 0.00 | 55 | 973.1 |
| 20260902171623 | 71 | 355 | 4.0 | 3.0 | 0.00 | 0.00 | 0.00 | 50 | 973.3 |
| 20260902171135 | 72 | 355 | 2.0 | 3.0 | 0.00 | 0.00 | 0.00 | 50 | 973.2 |
| 20260902170728 | 72 | 355 | 6.0 | 7.0 | 0.00 | 0.00 | 0.00 | 50 | 973.4 |
| 20260902170243 | 72 | 350 | 6.0 | 7.0 | 0.00 | 0.00 | 0.00 | 50 | 973.2 |
| 20260902165808 | 72 | 350 | 6.0 | 5.0 | 0.00 | 0.00 | 0.00 | 50 | 973.4 |
| 20260902165338 | 72 | 350 | 6.0 | 9.0 | 0.00 | 0.00 | 0.00 | 50 | 973.4 |
| 20260902164933 | 72 | 311 | 6.0 | 9.0 | 0.00 | 0.00 | 0.00 | 50 | 973.4 |
| 20260902164500 | 72 | 358 | 7.0 | 9.0 | 0.00 | 0.00 | 0.00 | 50 | 973.3 |
| 20260902164053 | 72 | 357 | 7.0 | 9.0 | 0.00 | 0.00 | 0.00 | 50 | 973.3 |
| 20260902163648 | 72 | 357 | 6.0 | 5.0 | 0.00 | 0.00 | 0.00 | 50 | 973.0 |
| 20260902163223 | 72 | 354 | 1.0 | 5.0 | 0.00 | 0.00 | 0.00 | 50 | 973.0 |
| 20260902162748 | 71 | 341 | 1.0 | 5.0 | 0.00 | 0.00 | 0.00 | 50 | 973.1 |
| 20260902162323 | 71 | 342 | 5.0 | 5.0 | 0.00 | 0.00 | 0.00 | 50 | 973.2 |
| 20260902161828 | 72 | 346 | 5.0 | 7.0 | 0.00 | 0.00 | 0.00 | 50 | 973.1 |
| 20260902161418 | 72 | 346 | 3.0 | 5.0 | 0.00 | 0.00 | 0.00 | 50 | 973.2 |
| 20260902161013 | 72 | 346 | 6.0 | 13.0 | 0.00 | 0.00 | 0.00 | 50 | 973.1 |
| 20260902160518 | 72 | 346 | 6.0 | 9.0 | 0.00 | 0.00 | 0.00 | 50 | 973.3 |
| 20260902160053 | 72 | 346 | 5.0 | 11.0 | 0.00 | 0.00 | 0.00 | 50 | 973.5 |
| 20260902155633 | 72 | 356 | 2.0 | 9.0 | 0.00 | 0.00 | 0.00 | 50 | 973.2 |
| 20260902155153 | 72 | 356 | 2.0 | 7.0 | 0.00 | 0.00 | 0.00 | 50 | 973.2 |
| 20260902154738 | 72 | 355 | 4.0 | 7.0 | 0.00 | 0.00 | 0.00 | 50 | 973.1 |
| 20260902154313 | 72 | 268 | 5.0 | 5.0 | 0.00 | 0.00 | 0.00 | 50 | 973.2 |
| 20260902153815 | 72 | 288 | 5.0 | 7.0 | 0.00 | 0.00 | 0.00 | 50 | 973.4 |
| 20260902153413 | 72 | 288 | 5.0 | 7.0 | 0.00 | 0.00 | 0.00 | 50 | 973.2 |
| 20260902152953 | 72 | 288 | 5.0 | 5.0 | 0.00 | 0.00 | 0.00 | 50 | 973.2 |
| 20260902152515 | 72 | 264 | 5.0 | 7.0 | 0.00 | 0.00 | 0.00 | 50 | 973.3 |
| 20260902152103 | 73 | 264 | 5.0 | 3.0 | 0.00 | 0.00 | 0.00 | 45 | 973.2 |
| 20260902151633 | 72 | 269 | 4.0 | 7.0 | 0.00 | 0.00 | 0.00 | 45 | 973.1 |
| 20260902151203 | 72 | 345 | 5.0 | 9.0 | 0.00 | 0.00 | 0.00 | 45 | 973.5 |
| 20260902150715 | 72 | 107 | 1.0 | 9.0 | 0.00 | 0.00 | 0.00 | 45 | 973.3 |
| 20260902150238 | 75 | 219 | 1.0 | 13.0 | 0.00 | 0.00 | 0.00 | 45 | 973.2 |
| 20260902145805 | 75 | 334 | 7.0 | 9.0 | 0.00 | 0.00 | 0.00 | 45 | 973.2 |
| 20260902145345 | 75 | 228 | 4.0 | 11.0 | 0.00 | 0.00 | 0.00 | 45 | 973.3 |
| 20260902144928 | 74 | 313 | 4.0 | 14.0 | 0.00 | 0.00 | 0.00 | 45 | 973.4 |
| 20260902144443 | 74 | 276 | 4.0 | 9.0 | 0.00 | 0.00 | 0.00 | 45 | 973.4 |
| 20260902144018 | 74 | 276 | 2.0 | 9.0 | 0.00 | 0.00 | 0.00 | 47 | 973.5 |
| 20260902143608 | 73 | 357 | 4.0 | 11.0 | 0.00 | 0.00 | 0.00 | 50 | 973.2 |
| 20260902143138 | 73 | 135 | 4.0 | 5.0 | 0.00 | 0.00 | 0.00 | 50 | 973.3 |
| 20260902142723 | 74 | 135 | 1.0 | 11.0 | 0.00 | 0.00 | 0.00 | 50 | 973.2 |
| 20260902142245 | 72 | 305 | 5.0 | 11.0 | 0.00 | 0.00 | 0.00 | 50 | 973.5 |
| 20260902141827 | 71 | 41 | 6.0 | 11.0 | 0.00 | 0.00 | 0.00 | 50 | 973.3 |
| 20260902141413 | 71 | 332 | 6.0 | 11.0 | 0.00 | 0.00 | 0.00 | 50 | 973.6 |
| 20260902140934 | 71 | 332 | 5.0 | 11.0 | 0.00 | 0.00 | 0.00 | 50 | 973.6 |
| 20260902140508 | 72 | 234 | 6.0 | 13.0 | 0.00 | 0.00 | 0.00 | 50 | 973.6 |
| 20260902140043 | 72 | 300 | 6.0 | 13.0 | 0.00 | 0.00 | 0.00 | 50 | 973.5 |
| 20260902135615 | 71 | 10 | 6.0 | 11.0 | 0.00 | 0.00 | 0.00 | 50 | 973.7 |
| 20260902135133 | 72 | 2 | 7.0 | 11.0 | 0.00 | 0.00 | 0.00 | 50 | 973.6 |
| 20260902134708 | 72 | 2 | 1.0 | 11.0 | 0.00 | 0.00 | 0.00 | 50 | 973.5 |
| 20260902134243 | 72 | 317 | 1.0 | 11.0 | 0.00 | 0.00 | 0.00 | 50 | 973.4 |
| 20260902133815 | 72 | 230 | 8.0 | 5.0 | 0.00 | 0.00 | 0.00 | 50 | 973.7 |
| 20260902133403 | 72 | 230 | 2.0 | 5.0 | 0.00 | 0.00 | 0.00 | 50 | 973.7 |
| 20260902132933 | 72 | 165 | 5.0 | 5.0 | 0.00 | 0.00 | 0.00 | 50 | 973.6 |
| 20260902132453 | 72 | 118 | 4.0 | 7.0 | 0.00 | 0.00 | 0.00 | 48 | 973.7 |
| 20260902132018 | 72 | 312 | 0.0 | 11.0 | 0.00 | 0.00 | 0.00 | 48 | 973.9 |
| 20260902131543 | 73 | 290 | 2.0 | 11.0 | 0.00 | 0.00 | 0.00 | 48 | 973.9 |
| 20260902131138 | 72 | 290 | 6.0 | 11.0 | 0.00 | 0.00 | 0.00 | 48 | 973.8 |
| 20260902130703 | 72 | 316 | 6.0 | 7.0 | 0.00 | 0.00 | 0.00 | 48 | 973.9 |
| 20260902130218 | 72 | 232 | 6.0 | 11.0 | 0.00 | 0.00 | 0.00 | 48 | 973.8 |
| 20260902125803 | 72 | 318 | 4.0 | 11.0 | 0.00 | 0.00 | 0.00 | 46 | 973.9 |
| 20260902125333 | 72 | 318 | 4.0 | 9.0 | 0.00 | 0.00 | 0.00 | 46 | 973.8 |
| 20260902124913 | 72 | 318 | 4.0 | 9.0 | 0.00 | 0.00 | 0.00 | 46 | 973.9 |
| 20260902124425 | 73 | 282 | 6.0 | 5.0 | 0.00 | 0.00 | 0.00 | 46 | 973.8 |
| 20260902123953 | 72 | 282 | 6.0 | 11.0 | 0.00 | 0.00 | 0.00 | 48 | 973.9 |
| 20260902123528 | 71 | 133 | 6.0 | 5.0 | 0.00 | 0.00 | 0.00 | 48 | 973.8 |
| 20260902123103 | 71 | 133 | 9.0 | 5.0 | 0.00 | 0.00 | 0.00 | 48 | 973.8 |
| 20260902122623 | 71 | 155 | 5.0 | 5.0 | 0.00 | 0.00 | 0.00 | 50 | 973.9 |
| 20260902122143 | 71 | 328 | 7.0 | 5.0 | 0.00 | 0.00 | 0.00 | 47 | 974.2 |
| 20260902121648 | 71 | 117 | 7.0 | 5.0 | 0.00 | 0.00 | 0.00 | 47 | 974.2 |
| 20260902121215 | 72 | 95 | 2.0 | 9.0 | 0.00 | 0.00 | 0.00 | 47 | 974.0 |
| 20260902120743 | 74 | 148 | 2.0 | 7.0 | 0.00 | 0.00 | 0.00 | 47 | 974.1 |
| 20260902120313 | 73 | 148 | 5.0 | 7.0 | 0.00 | 0.00 | 0.00 | 47 | 974.3 |
| 20260902115843 | 73 | 148 | 4.0 | 7.0 | 0.00 | 0.00 | 0.00 | 49 | 974.2 |
| 20260902115423 | 73 | 340 | 5.0 | 22.0 | 0.00 | 0.00 | 0.00 | 48 | 974.3 |
| 20260902115013 | 72 | 259 | 1.0 | 22.0 | 0.00 | 0.00 | 0.00 | 48 | 974.3 |
| 20260902114523 | 72 | 136 | 8.0 | 13.0 | 0.00 | 0.00 | 0.00 | 48 | 974.4 |
| 20260902114055 | 72 | 143 | 8.0 | 13.0 | 0.00 | 0.00 | 0.00 | 48 | 974.4 |
| 20260902113633 | 72 | 121 | 4.0 | 11.0 | 0.00 | 0.00 | 0.00 | 48 | 974.6 |
| 20260902113153 | 72 | 121 | 4.0 | 9.0 | 0.00 | 0.00 | 0.00 | 49 | 974.5 |
| 20260902112713 | 72 | 271 | 7.0 | 9.0 | 0.00 | 0.00 | 0.00 | 48 | 974.8 |
| 20260902112247 | 72 | 200 | 4.0 | 13.0 | 0.00 | 0.00 | 0.00 | 49 | 974.8 |
| 20260902111823 | 71 | 150 | 4.0 | 5.0 | 0.00 | 0.00 | 0.00 | 51 | 974.6 |
| 20260902111358 | 70 | 162 | 4.0 | 7.0 | 0.00 | 0.00 | 0.00 | 51 | 974.5 |
| 20260902110908 | 70 | 260 | 4.0 | 18.0 | 0.00 | 0.00 | 0.00 | 51 | 974.5 |
| 20260902110453 | 70 | 229 | 4.0 | 18.0 | 0.00 | 0.00 | 0.00 | 51 | 974.5 |
| 20260902110018 | 71 | 126 | 4.0 | 13.0 | 0.00 | 0.00 | 0.00 | 49 | 974.7 |
| 20260902105555 | 71 | 126 | 4.0 | 11.0 | 0.00 | 0.00 | 0.00 | 49 | 974.6 |
| 20260902105128 | 71 | 126 | 5.0 | 14.0 | 0.00 | 0.00 | 0.00 | 49 | 974.9 |
| 20260902104708 | 72 | 104 | 8.0 | 5.0 | 0.00 | 0.00 | 0.00 | 54 | 974.9 |
| 20260902104223 | 70 | 104 | 9.0 | 22.0 | 0.00 | 0.00 | 0.00 | 54 | 974.8 |
| 20260902103738 | 70 | 344 | 6.0 | 14.0 | 0.00 | 0.00 | 0.00 | 54 | 975.0 |
| 20260902103248 | 71 | 165 | 6.0 | 9.0 | 0.00 | 0.00 | 0.00 | 54 | 975.0 |
| 20260902102808 | 69 | 165 | 6.0 | 9.0 | 0.00 | 0.00 | 0.00 | 54 | 975.1 |
| 20260902102338 | 69 | 209 | 6.0 | 9.0 | 0.00 | 0.00 | 0.00 | 54 | 975.1 |
| 20260902101928 | 69 | 167 | 6.0 | 11.0 | 0.00 | 0.00 | 0.00 | 54 | 974.9 |
| 20260902101522 | 70 | 167 | 6.0 | 11.0 | 0.00 | 0.00 | 0.00 | 54 | 974.8 |
| 20260902101053 | 70 | 167 | 2.0 | 5.0 | 0.00 | 0.00 | 0.00 | 55 | 975.0 |
| 20260902100558 | 68 | 196 | 2.0 | 7.0 | 0.00 | 0.00 | 0.00 | 55 | 974.9 |
| 20260902100148 | 68 | 294 | 2.0 | 13.0 | 0.00 | 0.00 | 0.00 | 57 | 975.1 |
| 20260902095743 | 68 | 294 | 10.0 | 13.0 | 0.00 | 0.00 | 0.00 | 57 | 975.1 |
| 20260902095323 | 68 | 121 | 5.0 | 3.0 | 0.00 | 0.00 | 0.00 | 57 | 975.1 |
| 20260902094853 | 68 | 177 | 5.0 | 3.0 | 0.00 | 0.00 | 0.00 | 57 | 975.1 |
| 20260902094428 | 68 | 208 | 1.0 | 5.0 | 0.00 | 0.00 | 0.00 | 57 | 975.1 |
| 20260902094013 | 69 | 274 | 5.0 | 11.0 | 0.00 | 0.00 | 0.00 | 57 | 974.8 |
| 20260902093558 | 69 | 358 | 4.0 | 5.0 | 0.00 | 0.00 | 0.00 | 57 | 975.0 |
| 20260902093058 | 69 | 307 | 3.0 | 5.0 | 0.00 | 0.00 | 0.00 | 57 | 974.9 |
| 20260902092615 | 69 | 307 | 2.0 | 5.0 | 0.00 | 0.00 | 0.00 | 59 | 974.9 |
| 20260902092138 | 66 | 187 | 2.0 | 5.0 | 0.00 | 0.00 | 0.00 | 59 | 975.1 |
| 20260902091723 | 66 | 98 | 1.0 | 3.0 | 0.00 | 0.00 | 0.00 | 59 | 975.0 |
| 20260902091259 | 66 | 98 | 2.0 | 3.0 | 0.00 | 0.00 | 0.00 | 59 | 975.1 |
| 20260902090823 | 66 | 98 | 2.0 | 5.0 | 0.00 | 0.00 | 0.00 | 58 | 975.1 |
| 20260902090347 | 66 | 78 | 3.0 | 9.0 | 0.00 | 0.00 | 0.00 | 59 | 975.2 |
| 20260902085938 | 67 | 101 | 3.0 | 1.0 | 0.00 | 0.00 | 0.00 | 60 | 975.0 |
| 20260902085453 | 66 | 29 | 1.0 | 1.0 | 0.00 | 0.00 | 0.00 | 60 | 975.2 |
| 20260902085023 | 66 | 113 | 5.0 | 1.0 | 0.00 | 0.00 | 0.00 | 60 | 975.1 |
| 20260902084538 | 66 | 114 | 2.0 | 3.0 | 0.00 | 0.00 | 0.00 | 64 | 975.1 |
| 20260902084118 | 67 | 115 | 1.0 | 5.0 | 0.00 | 0.00 | 0.00 | 64 | 975.2 |
| 20260902083643 | 67 | 111 | 1.0 | 3.0 | 0.00 | 0.00 | 0.00 | 64 | 975.2 |
| 20260902083203 | 67 | 124 | 0.0 | 3.0 | 0.00 | 0.00 | 0.00 | 64 | 975.1 |
| 20260902082748 | 66 | 166 | 1.0 | 1.0 | 0.00 | 0.00 | 0.00 | 70 | 975.0 |
| 20260902082313 | 66 | 104 | 0.0 | 1.0 | 0.00 | 0.00 | 0.00 | 70 | 975.1 |
| 20260902081846 | 64 | 104 | 0.0 | 1.0 | 0.00 | 0.00 | 0.00 | 70 | 975.2 |
| 20260902081413 | 64 | 104 | 1.0 | 3.0 | 0.00 | 0.00 | 0.00 | 70 | 975.2 |
| 20260902080953 | 64 | 104 | 1.0 | 0.0 | 0.00 | 0.00 | 0.00 | 70 | 975.2 |
| 20260902080508 | 64 | 104 | 1.0 | 3.0 | 0.00 | 0.00 | 0.00 | 70 | 975.4 |
| 20260902080055 | 64 | 104 | 2.0 | 3.0 | 0.00 | 0.00 | 0.00 | 70 | 975.2 |
| 20260902075628 | 64 | 104 | 2.0 | 3.0 | 0.00 | 0.00 | 0.00 | 70 | 975.2 |
| 20260902075148 | 62 | 104 | 0.0 | 1.0 | 0.00 | 0.00 | 0.00 | 70 | 975.2 |
| 20260902074713 | 62 | 104 | 0.0 | 1.0 | 0.00 | 0.00 | 0.00 | 70 | 975.2 |